sat.trackr.live / text

‹ back to catalog

STARLINK-34057

NORAD 63814 · 2025-092L

PAYLOAD ACTIVE UNKNOWN

§ Identity

Operator
Country
US
Launch date
2025-05-04
Launch site
AFETR
Launch vehicle
Mass (kg)
RCS (m²)

Purposes: comms

External: N2YO · Heavens-Above · Gunter

§ Orbital elements

Epoch: 2026-05-25T03:55:05.013408Z

Period
94.27 min
Inclination
43.0004°
Eccentricity
0.0000430
Mean motion
15.27597987 rev/d
Perigee alt
482.7 km
Apogee alt
483.3 km
Semi-major
6,861.1 km
B*
4.2843e-4
RAAN
100.3692°
Arg perigee
182.8894°
Mean anomaly
177.1955°
Rev number
6,031

§ Raw data

STARLINK-340571 63814U 25092L   26145.16325247  .00011552  00000+0  42843-3 0  99952 63814  43.0004 100.3692 0000430 182.8894 177.1955 15.27597987 60318

JSON: /api/v1/satellites/63814 · /tle

For live sub-satellite position, see the globe view (requires WebGL).

§ Visibility from observer

Set your observer location to see the next 7 days of passes ≥ 10°. The values pass through the URL so the page stays shareable.

No JS? Fill the form by hand. The geolocation button needs JavaScript.